STARLINK-1646, 46351

Orbit data source: Space-Track

STARLINK-1646, 46351 is a payload satellite owned by SpaceX/Seattle (US) in LEO that was launched on Thu, 03 Sep 2020 UTC via an FALCON 9 launch vehicle from the Air Force Eastern Test Range (AFETR). Payload-class satellites include a variety of spacecraft equipped with specific instruments for various scientific and technological missions. These include communications satellites like Starlink; space stations such as the ISS; scientific satellites like the Hubble; Earth observation satellites from companies like Planet Labs, Umbra, and HawkEye 360; GPS; miniature CubeSats for education and research; and military/defense satellites.

Loading next visibility...
Identifier
46351, 2020-062AC
Orbit
LEO
Country
Flag of USUS
Related business
Manufacturer
SpaceX/Seattle
Mission
Operational Commercial Communications
Bus & Motor
STARLINK, Unknown motor
Mass
260 kg wet, ~248 kg dry
Launch date (UTC)
2020-09-03 (5 years ago)
Launch vehicle
FALCON 9
Launch site
Air Force Eastern Test Range (AFETR)
Object type
Payload
Rocket body
Debris
Shape & HBR
Box + 1 Pan, 10.1 m
Radar Cross Section
13.562 m², Large (>1 m²)

Expand to show TLE details & history
Last TLE update: 9 hours ago

TLE from 9 hours ago
0 STARLINK-1646
1 46351U 20062AC  25353.00002315  .01678279  00000-0  66623-1 0  9992
2 46351  53.0550 358.4373 0001509  86.9386  23.6322 15.21951100  5791
Epoch: 2025-12-19T00:00Z
TLE epoch observation values (Epoch: 2025-12-19T00:00:02.000Z)
Latitude
48.58346°
Longitude
32.60407°
Altitude
504.494 km
Speed
7.618 km/s
True Right ascension
08h 01m 50s
True Declination
48° 24' 23"
Sunlit
Object was in full shadow at epoch
Visualization orbit readout
Latitude
Unknown
Longitude
Unknown
Altitude
Unknown
Speed
Unknown
Apparent Right ascension
Unknown
Apparent Declination
Unknown
Sunlit
N/A
Visualization observer readout
Local Sidereal Time
07:50:47
Azimuth
Unknown
Elevation
Unknown
Doppler factor
Unknown
Orbital elements
Apogee altitude
501.266 km
Perigee altitude
499.19 km
Semi-major axis
6,878.365 km
Eccentricity
0.00015
Inclination
53.055°
RAAN
358.4373°
Arg. of periapsis
86.9386°
True anomaly
23.63913°
Mean anomaly
23.6322°
Eccentric anomaly
23.63567°
Mean motion
3.80466 °/min
Orbital period
94.62 mins
BSTAR
0.066623
Loading maneuver chart data...
Computing Atmospheric mass density...

Documentation

Showing up to 5 results
|